SCP
0 0 0 0 0 0 0 0 0 0 0 0 0 0 0 0 0 0 0 0 0 0 0 0 0 0 0 0 0 0 0 0 0 0 0 0 0 0 0 0 0 0 0 0 0 0 0 0 0
0 0 0 0 0 0 0 0 0 0 0 0 0 0 0 0 0 0 0 0 0 0 0 0 0 0 0 0 0 0 0 0 0 0 0 0 0 0 0 0 0 0 0 0 0 0 0 0 0
0 0 0 0 0 0 0 0 0 0 0 0 0 0 0 0 0 0 0 0 0 0 0 0 0 0 0 0 0 0 0 0 0 0 0 0 0 0 0 0 0 0 0 0 0 0 0 0 0
0 0 0 0 0 0 0 0 0 0 0 0 0 0 0 0 0 0 0 0 0 0 0 0 0 0 0 0 0 0 0 0 0 0 0 0 0 0 0 0 0 0 0 0 0 0 0 0 0
0 0 0 0 0 0 0 0 0 0 0 0 0 0 0 0 0 0 0 0 0 0 0 0 0 0 0 0 0 0 0 0 0 0 0 0 0 0 0 0 0 0 0 0 0 0 0 0 0
0 0 0 0 0 0 0 0 0 0 0 0 0 0 0 0 0 0 0 0 0 0 0 0 0 0 0 0 0 0 0 0 0 0 0 0 0 0 0 0 0 0 0 0 0 0 0 0 0
0 0 0 0 0 0 0 0 0 0 0 0 0 0 0 0 0 0 0 0 0 0 0 0 0 0 0 0 0 0 0 0 0 0 0 0 0 0 0 0 0 0 0 0 0 0 0 0 0
0 0 0 0 0 0 0 0 0 0 0 0 0 0 0 0 0 0 0 0 0 0 0 0 0 0 0 0 0 0 0 0 0 0 0 0 0 0 0 0 0 0 0 0 0 0 0 0 0
0 0 0 0 0 0 0 0 0 0 0 0 0 0 0 0 0 0 0 0 0 0 0 0 0 0 0 0 0 0 0 0 0 0 0 0 0 0 0 0 0 0 0 0 0 0 0 0 0
0 0 0 0 0 0 0 0 0 0 0 0 0 0 0 0 0 0 0 0 0 0 0 0 0 0 0 0 0 0 0 0 0 0 0 0 0 0 0 0 0 0 0 0 0 0 0 0 0
0 0 0 0 0 0 0 0 0 0 0 0 0 0 0 0 0 0 0 0 0 0 0 0 0 0 0 0 0 0 0 0 0 0 0 0 0 0 0 0 0 0 0 0 0 0 0 0 0
0 0 0 0 0 0 0 0 0 0 0 0 0 0 0 0 0 0 0 0 0 0 0 0 0 0 0 0 0 0 0 0 0 0 0 0 0 0 0 0 0 0 0 0 0 0 0 0 0
0 0 0 0 0 0 0 0 0 0 0 0 0 0 0 0 0 0 0 0 0 0 0 0 0 0 0 0 0 0 0 0 0 0 0 0 0 0 0 0 0 0 0 0 0 0 0 0 0
0 0 0 0 0 0 0 0 0 0 0 0 0 0 0 0 0 0 0 0 0 0 0 0 0 0 0 0 0 0 0 0 0 0 0 0 0 0 0 0 0 0 0 0 0 0 0 0 0
0 0 0 0 0 0 0 0 0 0 0 0 0 0 0 0 0 0 0 0 0 0 0 0 0 0 0 0 0 0 0 0 0 0 0 0 0 0 0 0 0 0 0 0 0 0 0 0 0
0 0 0 0 0 0 0 0 0 0 0 0 0 0 0 0 0 0 0 0 0 0 0 0 0 0 0 0 0 0 0 0 0 0 0 0 0 0 0 0 0 0 0 0 0 0 0 0 0
0 0 0 0 0 0 0 0 0 0 0 0 0 0 0 0 0 0 0 0 0 0 0 0 0 0 0 0 0 0 0 0 0 0 0 0 0 0 0 0 0 0 0 0 0 0 0 0 0
0 0 0 0 0 0 0 0 0 0 0 0 0 0 0 0 0 0 0 0 0 0 0 0 0 0 0 0 0 0 0 0 0 0 0 0 0 0 0 0 0 0 0 0 0 0 0 0 0
0 0 0 0 0 0 0 0 0 0 0 0 0 0 0 0 0 0 0 0 0 0 0 0 0 0 0 0 0 0 0 0 0 0 0 0 0 0 0 0 0 0 0 0 0 0 0 0 0
0 0 0 0 0 0 0 0 0 0 0 0 0 0 0 0 0 0 0 0 0 0 0 0 0 0 0 0 0 0 0 0 0 0 0 0 0 0 0 0 0 0 0 0 0 0 0 0 0
0 0 0 0 0 0 0 0 0 0 0 0 0 0 0 0 0 0 0 0 0 0 0 0 0 0 0 0 0 0 0 0 0 0 0 0 0 0 0 0 0 0 0 0 0 0 0 0 0
0 0 0 0 0 0 0 0 0 0 0 0 0 0 0 0 0 0 0 0 0 0 0 0 0 0 0 0 0 0 0 0 0 0 0 0 0 0 0 0 0 0 0 0 0 0 0 0 0
0 0 0 0 0 0 0 0 0 -0 0 0 0 0 0 0 0 0 0 0 0 0 0 0 0 0 0 0 0 0 0 0 0 0 0 0 0 0 0 0 0 0 0 0 0 0 0 0 0
0 0 0 0 0 0 0 0 0 0 0 0 0 0 0 0 0 0 0 0 0 0 0 0 0 0 0 0 0 0 0 0 0 0 0 0 0 0 0 0 0 0 0 0 0 0 0 0 0
0 0 0 0 0 0 0 0 0 0 0 0 0 0 0 0 0 0 0 0 0 0 0 0 0 0 0 0 0 0 0 0 0 0 0 0 0 0 0 0 0 0 0 0 0 0 0 0 0
0 0 0 0 0 0 0 0 0 0 0 0 0 0 0 0 0 0 0 0 0 0 0 0 0 0 0 0 0 0 0 0 0 0 0 0 0 0 0 0 0 0 0 0 0 0 0 0 0
0 0 0 0 0 0 0 0 0 0 0 0 0 0 0 0 0 0 0 0 0 0 0 0 0 0 0 0 0 0 0 0 0 0 0 0 0 0 0 0 0 0 0 0 0 0 0 0 0
0 0 0 0 0 0 0 0 0 0 0 0 0 0 0 0 0 0 0 0 0 0 0 0 0 0 0 0 0 0 0 0 0 0 0 0 0 0 0 0 0 0 0 0 0 0 0 0 0
0 0 0 0 0 0 0 0 0 0 0 0 0 0 0 0 0 0 0 0 0 0 0 0 0 0 0 0 0 0 0 0 0 0 0 0 0 0 0 0 0 0 0 0 0 0 0 0 0
0 0 0 0 0 0 0 0 0 0 0 0 0 0 0 0 0 0 0 0 0 0 0 0 0 0 0 0 0 0 0 0 0 0 0 0 0 0 0 0 0 0 0 0 0 0 0 0 0
Wind_Speed
2 3 3 4 6 3 4 6 4 3 3 2 3 6 9 8 7 4 2 9 10 11 11 15 19 19 18 17 16 15 14 13 12 12 12 12 12 12 12 12 12 13 13 13 13 13 13 13 13
1 2 4 5 5 2 6 5 6 6 4 3 3 4 4 3 2 5 5 8 11 13 10 12 19 19 18 17 16 15 14 13 12 12 12 12 11 11 12 12 12 12 13 13 13 12 12 12 12
2 2 4 4 4 6 6 5 7 3 3 3 3 2 4 4 4 7 6 11 11 11 9 12 20 20 19 18 17 16 15 14 13 13 12 12 12 11 12 12 12 12 12 12 12 11 11 11 11
3 4 5 3 6 7 6 4 3 3 2 3 4 3 1 0 5 6 9 12 13 10 8 12 20 20 19 18 17 16 15 14 13 13 12 12 12 11 11 11 11 11 11 11 11 11 11 11 11
4 4 2 2 6 6 6 5 3 4 4 3 5 5 1 2 3 8 13 14 14 11 8 11 20 20 20 19 18 17 16 15 14 13 12 12 11 11 11 10 10 10 10 9 10 10 10 10 10
4 4 3 5 7 5 5 4 4 4 3 3 6 6 3 1 5 9 12 12 12 11 9 10 20 20 19 19 18 17 16 15 14 13 12 12 11 11 10 9 9 9 8 8 8 8 8 9 9
5 4 4 5 4 5 5 5 6 6 5 7 8 7 2 2 5 9 9 9 8 8 8 7 9 13 18 18 18 17 16 15 14 13 12 12 11 10 10 9 8 7 7 7 7 7 7 8 8
5 4 4 4 5 6 3 3 4 7 6 4 7 9 7 7 9 10 9 8 8 7 7 6 6 8 9 10 15 16 16 15 15 13 12 11 10 9 9 8 7 7 6 6 6 6 6 7 7
4 3 5 6 7 5 2 2 2 3 4 3 3 3 3 14 15 13 10 8 9 10 7 6 6 7 7 7 11 12 14 14 13 11 12 9 4 4 5 5 6 6 5 5 5 5 6 6 6
5 6 9 6 5 4 2 3 3 3 3 2 1 2 8 16 18 18 16 17 17 16 13 8 8 8 8 7 6 5 5 7 6 5 6 5 4 3 4 3 3 4 4 4 4 5 6 5 3
7 8 6 6 5 3 2 2 3 6 5 8 9 9 13 15 16 17 17 18 18 16 14 12 10 9 9 6 6 4 4 4 5 7 6 5 4 2 2 1 1 2 3 3 3 4 3 3 2
6 7 6 5 5 4 4 3 2 6 8 5 6 12 16 19 19 19 19 17 13 14 15 13 11 10 9 7 6 5 4 4 4 6 7 5 3 3 2 2 1 1 1 1 2 1 2 2 2
8 5 6 7 6 5 4 5 4 6 6 1 6 11 16 19 18 16 13 12 12 15 16 15 13 12 10 8 6 7 6 6 6 5 6 6 4 4 3 2 2 2 1 1 1 1 1 2 2
8 8 7 6 6 4 6 7 4 9 4 4 8 12 15 18 18 12 10 13 14 16 16 15 15 13 11 10 8 7 6 6 6 6 6 7 5 5 4 3 2 2 2 2 2 1 1 1 1
4 5 6 7 7 5 4 9 9 9 4 5 8 10 12 14 12 14 16 17 17 17 16 16 15 14 14 12 10 7 7 7 7 6 7 7 6 6 5 4 3 3 2 3 2 2 2 2 2
4 5 8 8 8 7 8 14 10 7 8 9 9 9 10 12 12 13 13 12 13 13 15 16 14 15 15 13 10 8 7 7 7 6 6 8 8 7 5 4 4 3 3 3 2 2 2 2 2
5 8 10 7 7 7 10 10 9 6 9 10 9 9 10 11 11 12 12 12 12 14 15 16 16 17 16 13 9 8 7 8 7 6 6 8 8 8 6 5 4 4 3 3 3 2 2 1 1
10 8 7 9 6 8 9 10 8 5 8 10 10 9 10 12 16 14 13 12 12 13 14 15 16 15 14 11 7 6 6 7 6 7 7 9 8 8 7 5 5 5 4 3 3 3 2 2 1
8 7 8 7 5 8 10 12 12 8 7 9 10 10 11 14 13 11 11 11 11 12 14 16 17 16 14 12 11 11 11 9 8 8 9 10 9 9 8 6 6 5 5 5 5 3 3 2 1
10 10 8 4 4 7 7 10 10 10 9 10 11 12 13 12 9 9 10 11 13 15 17 17 18 18 17 14 13 10 8 6 6 6 8 10 10 10 9 8 7 6 5 5 5 4 3 2 1
15 14 11 6 1 2 2 8 8 8 7 8 9 10 10 13 13 11 10 12 13 15 17 17 19 19 19 15 9 6 5 4 5 7 8 9 10 10 10 10 8 7 7 6 6 5 6 3 1
19 14 10 7 4 5 4 7 9 7 8 10 11 10 11 12 11 10 10 10 13 16 15 16 18 18 18 16 14 16 12 11 12 9 8 8 10 10 10 10 9 8 6 7 6 5 4 5 3
9 9 10 8 7 6 4 6 9 4 9 12 12 12 13 12 12 11 11 12 12 13 13 14 15 16 16 17 18 17 13 10 7 6 9 9 8 9 10 10 9 9 7 7 7 6 5 4 4
7 6 4 4 5 14 14 10 10 8 12 9 9 11 12 11 10 10 9 8 8 9 10 12 14 15 16 18 18 18 16 12 11 10 11 9 7 7 9 9 9 9 7 8 7 7 7 5 4
10 9 7 8 10 12 9 11 13 10 10 11 11 11 11 10 9 9 8 8 8 10 11 12 14 15 16 17 18 18 17 15 16 13 12 10 8 7 10 9 9 8 7 8 7 7 6 6 6
15 14 11 10 9 6 7 13 11 10 9 9 10 10 9 9 8 9 9 9 9 10 11 12 14 14 15 17 17 15 14 12 10 11 10 11 10 10 11 10 10 9 9 8 7 6 6 5 6
13 13 7 3 3 4 7 7 10 6 7 9 10 9 11 10 8 8 7 7 8 9 10 12 14 13 14 16 15 14 14 13 11 11 9 9 7 7 10 11 10 9 9 9 9 6 6 6 5
10 10 7 8 8 8 6 7 8 7 11 10 10 11 12 9 8 7 7 7 7 7 8 9 11 13 12 13 13 11 13 13 11 11 11 10 9 9 11 11 10 10 9 9 8 6 6 6 5
9 12 8 7 6 7 6 9 9 12 12 13 14 13 11 10 9 8 6 5 5 5 7 8 9 9 10 12 12 11 12 11 11 11 11 11 10 11 12 11 11 11 10 9 8 7 8 7 5
7 9 10 10 7 6 5 9 5 9 9 9 11 10 8 8 6 5 5 5 5 6 7 8 8 9 10 10 10 11 10 11 11 11 10 10 10 10 11 11 11 10 10 10 10 9 9 8 8
Wind_Direction
2 70 80 61 59 54 237 239 224 232 220 207 159 156 164 169 171 198 147 145 139 150 162 165 157 153 149 145 140 137 133 129 124 120 116 113 109 105 101 96 92 88 85 82 81 80 80 77 73
114 104 61 66 101 202 254 237 220 219 193 127 100 118 144 197 180 135 144 163 148 152 157 159 158 155 152 148 144 142 139 136 132 127 122 118 114 110 106 100 96 92 88 86 83 82 81 78 75
126 70 91 92 155 196 230 226 218 226 180 158 133 147 174 181 167 174 175 155 145 151 154 162 159 157 154 151 149 147 144 141 137 132 127 123 119 115 110 104 99 95 91 88 85 83 82 79 76
98 55 62 105 224 226 225 236 191 159 186 187 145 133 232 305 174 175 149 150 146 150 154 164 161 160 156 155 154 152 149 146 142 137 133 128 122 117 112 109 105 100 95 91 87 84 82 80 78
68 87 101 242 243 245 238 241 197 181 187 177 148 148 172 21 111 136 147 153 153 153 157 166 164 162 159 157 156 156 153 150 146 143 139 133 127 123 119 116 111 105 100 94 89 86 82 79 77
71 84 146 233 248 258 251 215 173 193 190 170 151 149 180 93 134 148 152 154 155 155 157 167 167 163 161 160 159 158 156 153 149 146 143 138 135 132 129 124 117 111 104 97 93 89 85 81 77
129 135 199 221 247 260 242 185 179 186 196 197 166 149 214 169 160 144 141 140 146 152 156 167 166 164 165 164 163 162 160 158 154 152 148 144 142 140 136 131 126 120 110 102 94 88 84 79 75
149 143 205 218 223 250 234 183 192 176 205 176 151 156 202 183 146 130 125 133 145 155 161 167 159 157 159 163 165 164 164 162 159 156 150 148 149 146 140 134 132 127 118 109 97 86 77 70 64
121 137 213 212 204 238 232 197 202 167 143 158 191 186 186 135 139 137 140 153 166 173 175 170 161 155 153 157 167 165 165 164 159 155 151 143 124 118 127 138 144 139 129 115 98 81 67 58 46
150 199 220 211 202 216 231 209 191 137 155 181 158 69 120 142 154 160 167 174 180 184 185 178 169 161 157 163 160 157 156 157 147 141 140 128 126 128 126 152 151 134 114 96 79 65 56 53 36
182 208 220 229 225 222 228 230 196 155 204 207 192 171 154 160 167 175 180 183 186 184 184 183 177 167 165 162 157 155 148 145 142 144 140 135 130 127 115 111 87 79 79 62 49 48 46 46 40
198 226 215 222 216 215 218 218 213 194 219 224 194 162 164 172 180 186 187 188 182 183 189 185 179 174 172 165 163 159 155 154 155 155 151 144 144 148 150 144 136 110 92 90 65 57 48 47 43
218 233 223 229 230 226 227 233 230 240 243 208 137 156 177 183 191 195 190 182 180 187 189 187 183 181 176 169 170 169 168 166 162 160 163 159 160 167 166 164 155 155 143 133 117 83 61 54 50
214 221 237 236 232 226 224 247 221 246 225 169 163 179 193 194 195 188 182 184 189 192 191 188 188 184 180 180 178 175 173 167 165 169 173 170 168 168 168 170 169 174 169 156 144 133 103 74 67
195 215 252 240 223 222 201 260 231 232 203 199 198 198 204 209 200 197 195 193 193 193 190 190 190 186 186 185 182 176 176 172 175 178 176 176 174 172 169 171 180 182 163 147 130 115 91 78 63
177 202 237 238 202 200 179 247 248 221 198 218 219 214 215 219 213 212 205 200 193 188 189 191 190 190 191 189 184 180 178 178 181 178 178 182 181 174 170 175 185 172 154 148 138 123 99 76 64
197 208 222 236 204 182 190 236 247 210 192 219 224 220 219 224 227 222 211 203 194 191 190 191 191 191 193 190 185 180 177 182 182 179 181 185 182 176 174 180 178 162 154 151 142 109 115 105 72
201 204 207 212 205 180 205 234 248 222 199 221 228 226 223 224 228 221 212 205 197 192 190 192 193 192 188 185 178 175 179 187 185 186 187 183 183 178 175 174 170 160 153 150 142 124 97 97 100
195 193 210 216 197 184 216 236 246 238 220 231 234 228 227 230 233 224 214 204 194 190 190 191 193 191 184 186 188 189 194 192 192 193 189 185 182 179 176 172 168 167 169 168 154 131 119 91 86
214 218 220 233 202 197 230 249 250 239 224 222 227 228 227 231 238 229 215 202 197 197 195 194 194 191 189 192 192 192 184 185 188 185 188 188 184 180 180 175 174 173 164 159 157 141 130 108 87
216 216 215 213 172 216 259 278 256 255 231 233 229 229 227 224 229 226 214 208 202 201 199 197 195 193 192 188 176 157 144 142 173 189 193 192 187 183 181 180 174 175 171 173 172 160 149 146 112
223 213 206 209 207 240 203 263 263 245 254 242 237 232 233 232 229 226 216 209 206 207 201 198 194 193 190 182 180 179 185 190 193 188 187 184 185 183 182 178 176 176 174 172 172 165 154 142 152
212 185 195 209 218 244 223 244 267 236 245 245 237 232 232 231 227 226 220 214 209 203 196 195 191 191 188 186 187 188 193 193 175 165 173 180 183 184 182 178 175 175 174 172 165 161 160 154 154
177 145 167 198 212 239 223 221 260 219 221 233 235 231 230 230 228 227 224 212 207 196 190 188 188 190 187 188 189 192 192 179 169 173 180 183 180 182 183 179 178 176 172 172 171 167 167 164 155
175 165 186 199 212 234 203 211 243 223 214 216 227 233 230 226 222 223 219 207 201 191 188 186 186 189 188 189 191 194 193 185 184 181 183 180 178 185 188 181 179 176 174 170 164 165 170 167 164
191 185 193 196 203 226 186 219 242 227 222 223 230 233 230 224 220 220 218 208 201 194 188 185 188 189 187 189 193 193 190 188 190 185 181 184 188 189 182 179 178 174 170 168 164 163 170 166 170
184 199 197 174 176 201 221 251 284 244 235 231 231 229 230 227 221 220 217 207 200 192 189 188 187 187 187 190 190 189 188 188 187 182 179 183 181 175 173 175 174 172 170 169 165 169 171 166 173
187 169 168 192 188 214 233 230 230 215 217 219 223 226 231 227 221 219 214 206 199 192 186 183 185 187 185 186 188 189 189 189 183 178 181 181 176 169 169 172 173 171 172 170 167 165 165 164 171
172 182 181 185 201 189 219 246 216 202 204 210 219 221 220 218 216 211 204 194 182 172 172 176 180 178 180 183 184 183 184 182 177 180 183 180 173 170 173 175 174 174 174 172 171 170 167 170 172
188 182 178 191 205 195 205 255 238 210 214 212 221 221 217 215 207 198 188 174 171 173 173 176 177 178 181 180 178 180 178 175 178 180 179 175 173 174 174 173 173 176 176 175 176 176 174 176 181